Time,TemperatureF,DewpointF,PressureIn,WindDirection,WindDirectionDegrees,WindSpeedMPH,WindSpeedGustMPH,Humidity,HourlyPrecipIn,Conditions,Clouds,dailyrainin,SoftwareType,DateUTC
2013-01-05 00:04:00,21.0,12.7,30.35,SE,138,2.3,2.3,70,0.00,RA,,0.00,WeatherDisplay:10.37,2013-01-05 08:04:00,
2013-01-05 00:09:00,21.3,12.7,30.35,SE,138,2.3,2.3,69,0.00,RA,,0.00,WeatherDisplay:10.37,2013-01-05 08:09:00,
2013-01-05 00:14:00,21.4,12.5,30.35,SE,138,3.5,3.5,68,0.00,CLR,,0.00,WeatherDisplay:10.37,2013-01-05 08:14:00,
2013-01-05 00:19:00,21.6,12.7,30.34,SSE,147,3.5,3.5,68,0.00,CLR,,0.00,WeatherDisplay:10.37,2013-01-05 08:19:00,
2013-01-05 00:24:00,21.8,12.9,30.34,SE,144,3.5,3.5,68,0.00,CLR,,0.00,WeatherDisplay:10.37,2013-01-05 08:24:00,
2013-01-05 00:29:00,22.1,12.8,30.34,SE,143,2.3,2.3,67,0.00,CLR,,0.00,WeatherDisplay:10.37,2013-01-05 08:29:00,
2013-01-05 00:34:00,22.2,12.9,30.34,SE,144,2.3,2.3,67,0.00,CLR,,0.00,WeatherDisplay:10.37,2013-01-05 08:34:00,
2013-01-05 00:39:00,22.4,12.8,30.34,SE,143,1.1,0.0,66,0.00,CLR,,0.00,WeatherDisplay:10.37,2013-01-05 08:39:00,
2013-01-05 00:44:00,22.2,12.9,30.34,SE,143,1.0,0.0,67,0.00,CLR,,0.00,WeatherDisplay:10.37,2013-01-05 08:44:00,
2013-01-05 00:49:00,22.1,12.8,30.34,SE,144,1.1,1.1,67,0.00,CLR,,0.00,WeatherDisplay:10.37,2013-01-05 08:49:00,
2013-01-05 00:54:00,22.4,13.1,30.34,SE,144,1.1,0.0,67,0.00,CLR,,0.00,WeatherDisplay:10.37,2013-01-05 08:54:00,
2013-01-05 00:59:00,22.7,13.0,30.34,SE,143,2.3,2.3,66,0.00,CLR,,0.00,WeatherDisplay:10.37,2013-01-05 08:59:00,
2013-01-05 01:04:00,22.9,13.2,30.34,SE,131,4.6,4.6,66,0.00,CLR,,0.00,WeatherDisplay:10.37,2013-01-05 09:04:00,
2013-01-05 01:09:00,23.2,13.5,30.34,SE,131,3.5,3.5,66,0.00,CLR,,0.00,WeatherDisplay:10.37,2013-01-05 09:09:00,
2013-01-05 01:14:00,23.5,13.5,30.34,SE,144,6.0,6.0,65,0.00,CLR,,0.00,WeatherDisplay:10.37,2013-01-05 09:14:00,
2013-01-05 01:19:00,23.5,13.5,30.33,SE,144,3.5,3.5,65,0.00,CLR,,0.00,WeatherDisplay:10.37,2013-01-05 09:19:00,
2013-01-05 01:24:00,23.6,13.2,30.33,SSE,158,4.6,4.6,64,0.00,CLR,,0.00,WeatherDisplay:10.37,2013-01-05 09:24:00,
2013-01-05 01:29:00,23.3,13.3,30.33,SSE,158,2.3,0.0,65,0.00,CLR,,0.00,WeatherDisplay:10.37,2013-01-05 09:29:00,
2013-01-05 01:34:00,23.2,13.2,30.34,SSE,154,2.3,2.3,65,0.00,CLR,,0.00,WeatherDisplay:10.37,2013-01-05 09:34:00,
2013-01-05 01:39:00,23.0,13.0,30.34,SE,143,3.5,3.5,65,0.00,CLR,,0.00,WeatherDisplay:10.37,2013-01-05 09:39:00,
2013-01-05 01:44:00,22.9,12.9,30.34,SE,137,4.0,4.0,65,0.00,CLR,,0.00,WeatherDisplay:10.37,2013-01-05 09:44:00,
2013-01-05 01:49:00,22.7,12.7,30.34,SE,141,3.5,3.5,65,0.00,CLR,,0.00,WeatherDisplay:10.37,2013-01-05 09:49:00,
2013-01-05 01:54:00,22.7,12.7,30.34,SSE,151,6.0,6.0,65,0.00,CLR,,0.00,WeatherDisplay:10.37,2013-01-05 09:54:00,
2013-01-05 01:59:00,22.7,12.7,30.34,SSE,160,3.5,3.5,65,0.00,CLR,,0.00,WeatherDisplay:10.37,2013-01-05 09:59:00,
2013-01-05 02:04:00,22.5,12.5,30.33,SSE,160,2.3,2.3,65,0.00,CLR,,0.00,WeatherDisplay:10.37,2013-01-05 10:04:00,
2013-01-05 02:09:00,22.2,12.2,30.34,SSE,160,1.1,0.0,65,0.00,CLR,,0.00,WeatherDisplay:10.37,2013-01-05 10:09:00,
2013-01-05 02:14:00,22.1,12.5,30.34,SSE,160,2.3,0.0,66,0.00,CLR,,0.00,WeatherDisplay:10.37,2013-01-05 10:14:00,
2013-01-05 02:19:00,21.9,12.3,30.34,SSE,160,2.3,2.3,66,0.00,CLR,,0.00,WeatherDisplay:10.37,2013-01-05 10:19:00,
2013-01-05 02:24:00,21.8,12.2,30.34,SSE,160,2.3,2.3,66,0.00,CLR,,0.00,WeatherDisplay:10.37,2013-01-05 10:24:00,
2013-01-05 02:29:00,21.4,11.8,30.34,SSE,160,2.3,2.3,66,0.00,CLR,,0.00,WeatherDisplay:10.37,2013-01-05 10:29:00,
2013-01-05 02:34:00,21.3,12.0,30.34,SSE,160,2.0,2.0,67,0.00,CLR,,0.00,WeatherDisplay:10.37,2013-01-05 10:34:00,
2013-01-05 02:39:00,21.3,12.0,30.34,SSE,160,2.0,2.0,67,0.00,CLR,,0.00,WeatherDisplay:10.37,2013-01-05 10:39:00,
2013-01-05 02:44:00,21.3,12.0,30.34,SSE,160,2.3,2.3,67,0.00,CLR,,0.00,WeatherDisplay:10.37,2013-01-05 10:44:00,
2013-01-05 02:49:00,21.3,12.0,30.34,SSE,160,1.1,1.1,67,0.00,CLR,,0.00,WeatherDisplay:10.37,2013-01-05 10:49:00,
2013-01-05 02:55:00,21.3,12.0,30.34,SSE,160,1.1,1.1,67,0.00,CLR,,0.00,WeatherDisplay:10.37,2013-01-05 10:55:00,
2013-01-05 03:00:00,21.3,12.0,30.34,SSE,160,1.1,0.0,67,0.00,CLR,,0.00,WeatherDisplay:10.37,2013-01-05 11:00:00,
2013-01-05 03:05:00,21.3,12.0,30.35,SSE,160,0.0,2.0,67,0.00,CLR,,0.00,WeatherDisplay:10.37,2013-01-05 11:05:00,
2013-01-05 03:10:00,21.1,11.8,30.35,SSE,160,0.0,1.0,67,0.00,CLR,,0.00,WeatherDisplay:10.37,2013-01-05 11:10:00,
2013-01-05 03:16:00,20.8,11.9,30.35,SSE,160,0.0,0.0,68,0.00,CLR,,0.00,WeatherDisplay:10.37,2013-01-05 11:16:00,
2013-01-05 03:21:00,20.8,11.6,30.35,SSE,160,0.0,0.0,67,0.00,CLR,,0.00,WeatherDisplay:10.37,2013-01-05 11:21:00,
2013-01-05 03:26:00,20.6,11.7,30.35,SSE,160,0.0,0.0,68,0.00,CLR,,0.00,WeatherDisplay:10.37,2013-01-05 11:26:00,
2013-01-05 03:31:00,20.5,11.6,30.35,SSE,160,2.3,0.0,68,0.00,CLR,,0.00,WeatherDisplay:10.37,2013-01-05 11:31:00,
2013-01-05 03:36:00,20.5,11.6,30.35,SSE,160,0.0,0.0,68,0.00,CLR,,0.00,WeatherDisplay:10.37,2013-01-05 11:36:00,
2013-01-05 03:41:00,20.5,11.6,30.35,SSE,160,0.0,0.0,68,0.00,CLR,,0.00,WeatherDisplay:10.37,2013-01-05 11:41:00,
2013-01-05 03:46:00,20.3,11.4,30.34,SSE,160,3.5,3.5,68,0.00,CLR,,0.00,WeatherDisplay:10.37,2013-01-05 11:46:00,
2013-01-05 03:51:00,20.5,11.6,30.34,East,85,3.5,3.5,68,0.00,CLR,,0.00,WeatherDisplay:10.37,2013-01-05 11:51:00,
2013-01-05 03:56:00,20.6,11.4,30.34,East,85,3.5,3.5,67,0.00,CLR,,0.00,WeatherDisplay:10.37,2013-01-05 11:56:00,
2013-01-05 04:01:00,21.1,11.5,30.34,East,85,3.5,3.5,66,0.00,CLR,,0.00,WeatherDisplay:10.37,2013-01-05 12:01:00,
2013-01-05 04:06:00,21.1,11.2,30.36,East,85,2.3,2.3,65,0.00,CLR,,0.00,WeatherDisplay:10.37,2013-01-05 12:06:00,
2013-01-05 04:12:00,21.3,11.4,30.36,East,85,3.5,3.5,65,0.00,CLR,,0.00,WeatherDisplay:10.37,2013-01-05 12:12:00,
2013-01-05 04:18:00,21.3,11.0,30.36,East,85,3.5,3.5,64,0.00,CLR,,0.00,WeatherDisplay:10.37,2013-01-05 12:18:00,
2013-01-05 04:23:00,21.3,10.7,30.35,East,97,5.0,5.0,63,0.00,CLR,,0.00,WeatherDisplay:10.37,2013-01-05 12:23:00,
2013-01-05 04:29:00,21.1,10.8,30.35,East,97,3.5,3.5,64,0.00,CLR,,0.00,WeatherDisplay:10.37,2013-01-05 12:29:00,
2013-01-05 04:34:00,21.0,10.7,30.35,East,97,2.3,2.3,64,0.00,CLR,,0.00,WeatherDisplay:10.37,2013-01-05 12:34:00,
2013-01-05 04:39:00,20.8,10.5,30.35,East,97,1.1,0.0,64,0.00,CLR,,0.00,WeatherDisplay:10.37,2013-01-05 12:39:00,
2013-01-05 04:44:00,20.6,10.3,30.36,East,97,0.0,0.0,64,0.00,CLR,,0.00,WeatherDisplay:10.37,2013-01-05 12:44:00,
2013-01-05 04:49:00,20.6,10.3,30.36,East,97,0.0,0.0,64,0.00,CLR,,0.00,WeatherDisplay:10.37,2013-01-05 12:49:00,
2013-01-05 04:54:00,20.5,10.6,30.36,East,97,0.0,0.0,65,0.00,CLR,,0.00,WeatherDisplay:10.37,2013-01-05 12:54:00,
2013-01-05 04:59:00,20.5,10.2,30.36,East,97,1.1,0.0,64,0.00,CLR,,0.00,WeatherDisplay:10.37,2013-01-05 12:59:00,
2013-01-05 05:05:00,20.5,10.2,30.37,East,97,1.1,1.1,64,0.00,CLR,,0.00,WeatherDisplay:10.37,2013-01-05 13:05:00,
2013-01-05 05:10:00,20.5,10.6,30.38,East,97,2.3,2.3,65,0.00,CLR,,0.00,WeatherDisplay:10.37,2013-01-05 13:10:00,
2013-01-05 05:15:00,20.5,10.9,30.38,East,97,1.0,2.0,66,0.00,CLR,,0.00,WeatherDisplay:10.37,2013-01-05 13:15:00,
2013-01-05 05:21:00,20.5,10.9,30.37,East,97,0.0,2.0,66,0.00,CLR,,0.00,WeatherDisplay:10.37,2013-01-05 13:21:00,
2013-01-05 05:26:00,20.5,11.3,30.38,East,97,1.1,1.1,67,0.00,CLR,,0.00,WeatherDisplay:10.37,2013-01-05 13:26:00,
2013-01-05 05:32:00,20.3,11.1,30.37,East,97,0.0,0.0,67,0.00,CLR,,0.00,WeatherDisplay:10.37,2013-01-05 13:32:00,
2013-01-05 05:37:00,20.2,11.3,30.38,East,97,0.0,0.0,68,0.00,CLR,,0.00,WeatherDisplay:10.37,2013-01-05 13:37:00,
2013-01-05 05:42:00,20.2,11.0,30.38,East,97,0.0,0.0,67,0.00,CLR,,0.00,WeatherDisplay:10.37,2013-01-05 13:42:00,
2013-01-05 05:47:00,20.2,11.3,30.38,East,97,0.0,0.0,68,0.00,CLR,,0.00,WeatherDisplay:10.37,2013-01-05 13:47:00,
2013-01-05 05:52:00,20.0,11.5,30.38,East,97,1.0,1.0,69,0.00,CLR,,0.00,WeatherDisplay:10.37,2013-01-05 13:52:00,
2013-01-05 05:57:00,20.2,11.7,30.38,East,97,0.0,0.0,69,0.00,CLR,,0.00,WeatherDisplay:10.37,2013-01-05 13:57:00,
2013-01-05 06:02:00,20.3,11.7,30.38,East,97,0.0,0.0,69,0.00,CLR,,0.00,WeatherDisplay:10.37,2013-01-05 14:02:00,
2013-01-05 06:07:00,20.3,11.7,30.39,East,97,0.0,0.0,69,0.00,CLR,,0.00,WeatherDisplay:10.37,2013-01-05 14:07:00,
2013-01-05 06:12:00,20.3,12.1,30.39,East,97,0.0,0.0,70,0.00,CLR,,0.00,WeatherDisplay:10.37,2013-01-05 14:12:00,
2013-01-05 06:17:00,20.5,11.9,30.39,East,97,0.0,0.0,69,0.00,CLR,,0.00,WeatherDisplay:10.37,2013-01-05 14:17:00,
2013-01-05 06:22:00,20.5,11.9,30.39,East,97,0.0,0.0,69,0.00,CLR,,0.00,WeatherDisplay:10.37,2013-01-05 14:22:00,
2013-01-05 06:27:00,20.5,11.9,30.39,East,97,0.0,0.0,69,0.00,CLR,,0.00,WeatherDisplay:10.37,2013-01-05 14:27:00,
2013-01-05 06:32:00,20.5,12.3,30.39,East,97,0.0,0.0,70,0.00,CLR,,0.00,WeatherDisplay:10.37,2013-01-05 14:32:00,
2013-01-05 06:37:00,20.5,12.3,30.39,East,97,2.0,2.0,70,0.00,CLR,,0.00,WeatherDisplay:10.37,2013-01-05 14:37:00,
2013-01-05 06:42:00,20.5,12.6,30.39,East,97,1.0,0.0,71,0.00,CLR,,0.00,WeatherDisplay:10.37,2013-01-05 14:42:00,
2013-01-05 06:47:00,20.6,12.4,30.39,East,97,0.0,0.0,70,0.00,CLR,,0.00,WeatherDisplay:10.37,2013-01-05 14:47:00,
2013-01-05 06:52:00,20.6,12.4,30.39,East,97,0.0,0.0,70,0.00,CLR,,0.00,WeatherDisplay:10.37,2013-01-05 14:52:00,
2013-01-05 06:57:00,21.0,12.4,30.38,East,97,1.1,1.1,69,0.00,CLR,,0.00,WeatherDisplay:10.37,2013-01-05 14:57:00,
2013-01-05 07:02:00,21.3,12.7,30.38,East,97,1.1,1.1,69,0.00,CLR,,0.00,WeatherDisplay:10.37,2013-01-05 15:02:00,
2013-01-05 07:07:00,21.3,12.7,30.38,East,97,0.0,0.0,69,0.00,CLR,,0.00,WeatherDisplay:10.37,2013-01-05 15:07:00,
2013-01-05 07:12:00,21.4,12.8,30.39,East,97,0.0,0.0,69,0.00,CLR,,0.00,WeatherDisplay:10.37,2013-01-05 15:12:00,
2013-01-05 07:17:00,21.4,12.5,30.39,East,97,0.0,0.0,68,0.00,CLR,,0.00,WeatherDisplay:10.37,2013-01-05 15:17:00,
2013-01-05 07:22:00,21.3,12.7,30.39,East,97,0.0,0.0,69,0.00,CLR,,0.00,WeatherDisplay:10.37,2013-01-05 15:22:00,
2013-01-05 07:27:00,21.3,12.7,30.38,East,97,0.0,0.0,69,0.00,CLR,,0.00,WeatherDisplay:10.37,2013-01-05 15:27:00,
2013-01-05 07:32:00,21.3,12.7,30.38,East,97,0.0,0.0,69,0.00,CLR,,0.00,WeatherDisplay:10.37,2013-01-05 15:32:00,
2013-01-05 07:37:00,21.1,12.8,30.39,East,97,0.0,0.0,70,0.00,CLR,,0.00,WeatherDisplay:10.37,2013-01-05 15:37:00,
2013-01-05 07:42:00,21.0,12.7,30.38,East,97,1.1,1.1,70,0.00,CLR,,0.00,WeatherDisplay:10.37,2013-01-05 15:42:00,
2013-01-05 07:47:00,21.0,12.4,30.39,East,97,0.0,0.0,69,0.00,CLR,,0.00,WeatherDisplay:10.37,2013-01-05 15:47:00,
2013-01-05 07:52:00,21.0,12.1,30.39,East,97,0.0,0.0,68,0.00,CLR,,0.00,WeatherDisplay:10.37,2013-01-05 15:52:00,
2013-01-05 07:57:00,21.0,12.1,30.39,East,97,0.0,0.0,68,0.00,CLR,,0.00,WeatherDisplay:10.37,2013-01-05 15:57:00,
2013-01-05 08:02:00,21.1,12.2,30.39,East,97,2.0,2.0,68,0.00,CLR,,0.00,WeatherDisplay:10.37,2013-01-05 16:02:00,
2013-01-05 08:07:00,21.8,11.8,30.39,East,97,2.3,2.3,65,0.00,CLR,,0.00,WeatherDisplay:10.37,2013-01-05 16:07:00,
2013-01-05 08:12:00,22.1,12.1,30.39,East,97,3.5,3.5,65,0.00,CLR,,0.00,WeatherDisplay:10.37,2013-01-05 16:12:00,
2013-01-05 08:17:00,22.2,11.9,30.39,East,97,3.5,3.5,64,0.00,CLR,,0.00,WeatherDisplay:10.37,2013-01-05 16:17:00,
2013-01-05 08:22:00,22.4,12.1,30.40,East,97,3.0,3.0,64,0.00,CLR,,0.00,WeatherDisplay:10.37,2013-01-05 16:22:00,
2013-01-05 08:27:00,22.4,11.7,30.39,East,97,2.3,2.3,63,0.00,CLR,,0.00,WeatherDisplay:10.37,2013-01-05 16:27:00,
2013-01-05 08:32:00,22.5,11.8,30.40,East,89,4.6,4.6,63,0.00,CLR,,0.00,WeatherDisplay:10.37,2013-01-05 16:32:00,
2013-01-05 08:37:00,22.7,12.0,30.40,East,89,3.5,3.5,63,0.00,CLR,,0.00,WeatherDisplay:10.37,2013-01-05 16:37:00,
2013-01-05 08:42:00,22.9,12.2,30.40,East,89,3.5,3.5,63,0.00,CLR,,0.00,WeatherDisplay:10.37,2013-01-05 16:42:00,
2013-01-05 08:47:00,23.0,11.9,30.40,East,92,3.5,3.5,62,0.00,CLR,,0.00,WeatherDisplay:10.37,2013-01-05 16:47:00,
2013-01-05 08:52:00,23.2,12.1,30.39,East,92,3.5,3.5,62,0.00,CLR,,0.00,WeatherDisplay:10.37,2013-01-05 16:52:00,
2013-01-05 08:57:00,23.3,12.2,30.40,East,99,3.5,0.0,62,0.00,CLR,,0.00,WeatherDisplay:10.37,2013-01-05 16:57:00,
2013-01-05 09:02:00,23.6,12.5,30.39,East,99,0.0,0.0,62,0.00,CLR,,0.00,WeatherDisplay:10.37,2013-01-05 17:02:00,
2013-01-05 09:07:00,23.9,12.8,30.40,East,99,0.0,0.0,62,0.00,CLR,,0.00,WeatherDisplay:10.37,2013-01-05 17:07:00,
2013-01-05 09:12:00,24.1,12.2,30.40,East,99,2.3,2.3,60,0.00,CLR,,0.00,WeatherDisplay:10.37,2013-01-05 17:12:00,
2013-01-05 09:17:00,24.4,12.5,30.40,East,99,0.0,0.0,60,0.00,CLR,,0.00,WeatherDisplay:10.37,2013-01-05 17:17:00,
2013-01-05 09:22:00,24.5,13.0,30.40,East,99,0.0,0.0,61,0.00,CLR,,0.00,WeatherDisplay:10.37,2013-01-05 17:22:00,
2013-01-05 09:27:00,24.7,12.4,30.40,East,99,0.0,0.0,59,0.00,CLR,,0.00,WeatherDisplay:10.37,2013-01-05 17:27:00,
2013-01-05 09:32:00,24.8,12.5,30.40,East,99,0.0,0.0,59,0.00,CLR,,0.00,WeatherDisplay:10.37,2013-01-05 17:32:00,
2013-01-05 09:37:00,24.8,12.5,30.40,East,99,2.3,2.3,59,0.00,CLR,,0.00,WeatherDisplay:10.37,2013-01-05 17:37:00,
2013-01-05 09:42:00,25.0,12.7,30.40,East,99,2.3,2.3,59,0.00,CLR,,0.00,WeatherDisplay:10.37,2013-01-05 17:42:00,
2013-01-05 09:47:00,25.1,12.8,30.40,East,97,2.3,2.3,59,0.00,CLR,,0.00,WeatherDisplay:10.37,2013-01-05 17:47:00,
2013-01-05 09:52:00,25.4,13.1,30.40,East,97,2.3,2.3,59,0.00,CLR,,0.00,WeatherDisplay:10.37,2013-01-05 17:52:00,
2013-01-05 09:57:00,25.6,13.2,30.40,East,97,2.3,2.3,59,0.00,CLR,,0.00,WeatherDisplay:10.37,2013-01-05 17:57:00,
2013-01-05 10:02:00,25.8,13.0,30.40,East,96,4.0,4.0,58,0.00,CLR,,0.00,WeatherDisplay:10.37,2013-01-05 18:02:00,
2013-01-05 10:07:00,26.1,13.3,30.40,East,85,3.5,3.5,58,0.00,CLR,,0.00,WeatherDisplay:10.37,2013-01-05 18:07:00,
2013-01-05 10:12:00,26.4,13.6,30.40,East,85,2.3,2.3,58,0.00,CLR,,0.00,WeatherDisplay:10.37,2013-01-05 18:12:00,
2013-01-05 10:17:00,26.7,13.5,30.40,East,90,3.5,3.5,57,0.00,CLR,,0.00,WeatherDisplay:10.37,2013-01-05 18:17:00,
2013-01-05 10:22:00,27.0,13.8,30.40,SE,134,4.6,4.6,57,0.00,CLR,,0.00,WeatherDisplay:10.37,2013-01-05 18:22:00,
2013-01-05 10:27:00,27.3,13.7,30.40,ESE,113,3.5,3.5,56,0.00,CLR,,0.00,WeatherDisplay:10.37,2013-01-05 18:27:00,
2013-01-05 10:32:00,27.6,14.3,30.39,ESE,110,4.6,4.6,57,0.00,CLR,,0.00,WeatherDisplay:10.37,2013-01-05 18:32:00,
2013-01-05 10:37:00,27.8,13.7,30.39,ESE,103,5.0,5.0,55,0.00,CLR,,0.00,WeatherDisplay:10.37,2013-01-05 18:37:00,
2013-01-05 10:42:00,27.9,13.8,30.39,ESE,103,4.0,4.0,55,0.00,CLR,,0.00,WeatherDisplay:10.37,2013-01-05 18:42:00,
2013-01-05 10:47:00,28.2,14.1,30.38,ESE,102,4.6,4.6,55,0.00,CLR,,0.00,WeatherDisplay:10.37,2013-01-05 18:47:00,
2013-01-05 10:52:00,28.4,14.3,30.38,ESE,102,5.8,5.8,55,0.00,CLR,,0.00,WeatherDisplay:10.37,2013-01-05 18:52:00,
2013-01-05 10:57:00,28.5,13.9,30.38,East,96,6.0,6.0,54,0.00,CLR,,0.00,WeatherDisplay:10.37,2013-01-05 18:57:00,
2013-01-05 11:02:00,28.7,14.6,30.38,SE,130,3.0,3.0,55,0.00,CLR,,0.00,WeatherDisplay:10.37,2013-01-05 19:02:00,
2013-01-05 11:07:00,28.8,14.6,30.38,ESE,104,2.3,2.3,55,0.00,CLR,,0.00,WeatherDisplay:10.37,2013-01-05 19:07:00,
2013-01-05 11:12:00,29.0,14.4,30.38,ESE,104,3.5,3.5,54,0.00,CLR,,0.00,WeatherDisplay:10.37,2013-01-05 19:12:00,
2013-01-05 11:17:00,29.1,14.9,30.38,ESE,104,2.0,2.0,55,0.00,CLR,,0.00,WeatherDisplay:10.37,2013-01-05 19:17:00,
2013-01-05 11:22:00,29.3,14.7,30.38,ESE,121,3.5,3.5,54,0.00,CLR,,0.00,WeatherDisplay:10.37,2013-01-05 19:22:00,
2013-01-05 11:27:00,29.3,14.7,30.37,ESE,107,3.5,3.5,54,0.00,CLR,,0.00,WeatherDisplay:10.37,2013-01-05 19:27:00,
2013-01-05 11:32:00,29.4,14.4,30.37,East,93,3.5,3.5,53,0.00,CLR,,0.00,WeatherDisplay:10.37,2013-01-05 19:32:00,
2013-01-05 11:37:00,29.4,14.8,30.37,East,88,5.0,5.0,54,0.00,CLR,,0.00,WeatherDisplay:10.37,2013-01-05 19:37:00,
2013-01-05 11:42:00,29.4,14.4,30.37,East,86,3.5,3.5,53,0.00,CLR,,0.00,WeatherDisplay:10.37,2013-01-05 19:42:00,
2013-01-05 11:47:00,29.3,14.3,30.36,ESE,109,3.5,3.5,53,0.00,CLR,,0.00,WeatherDisplay:10.37,2013-01-05 19:47:00,
2013-01-05 11:52:00,29.4,14.4,30.36,ESE,121,4.6,4.6,53,0.00,CLR,,0.00,WeatherDisplay:10.37,2013-01-05 19:52:00,
2013-01-05 11:57:00,29.4,14.8,30.36,East,90,3.5,3.5,54,0.00,CLR,,0.00,WeatherDisplay:10.37,2013-01-05 19:57:00,
2013-01-05 12:02:00,29.4,14.8,30.36,ESE,106,3.5,3.5,54,0.00,CLR,,0.00,WeatherDisplay:10.37,2013-01-05 20:02:00,
2013-01-05 12:07:00,29.4,14.4,30.36,East,80,5.0,5.0,53,0.00,CLR,,0.00,WeatherDisplay:10.37,2013-01-05 20:07:00,
2013-01-05 12:12:00,29.5,15.3,30.36,ESE,104,3.0,3.0,55,0.00,CLR,,0.00,WeatherDisplay:10.37,2013-01-05 20:12:00,
2013-01-05 12:17:00,29.5,15.3,30.36,East,93,6.0,6.0,55,0.00,CLR,,0.00,WeatherDisplay:10.37,2013-01-05 20:17:00,
2013-01-05 12:22:00,29.5,14.9,30.35,ESE,107,7.0,7.0,54,0.00,CLR,,0.00,WeatherDisplay:10.37,2013-01-05 20:22:00,
2013-01-05 12:27:00,29.5,15.3,30.35,East,99,7.0,7.0,55,0.00,CLR,,0.00,WeatherDisplay:10.37,2013-01-05 20:27:00,
2013-01-05 12:32:00,29.4,15.6,30.35,East,82,7.0,7.0,56,0.00,CLR,,0.00,WeatherDisplay:10.37,2013-01-05 20:32:00,
2013-01-05 12:37:00,28.8,17.4,30.35,East,97,8.1,8.1,62,0.00,CLR,,0.00,WeatherDisplay:10.37,2013-01-05 20:37:00,
2013-01-05 12:42:00,28.5,17.9,30.35,East,97,4.6,4.6,64,0.00,CLR,,0.00,WeatherDisplay:10.37,2013-01-05 20:42:00,
2013-01-05 12:47:00,28.2,17.9,30.35,ESE,103,6.0,6.0,65,0.00,CLR,,0.00,WeatherDisplay:10.37,2013-01-05 20:47:00,
2013-01-05 12:52:00,28.1,17.8,30.35,East,85,6.9,6.9,65,0.00,CLR,,0.00,WeatherDisplay:10.37,2013-01-05 20:52:00,
2013-01-05 12:57:00,28.1,18.2,30.35,ESE,102,8.1,8.1,66,0.00,CLR,,0.00,WeatherDisplay:10.37,2013-01-05 20:57:00,
2013-01-05 13:03:00,28.1,18.9,30.34,ESE,104,7.0,7.0,68,0.00,CLR,,0.00,WeatherDisplay:10.37,2013-01-05 21:03:00,
2013-01-05 13:08:00,28.1,18.5,30.34,ESE,112,6.9,6.9,67,0.00,CLR,,0.00,WeatherDisplay:10.37,2013-01-05 21:08:00,
2013-01-05 13:13:00,28.2,18.6,30.34,East,92,9.0,9.0,67,0.00,CLR,,0.00,WeatherDisplay:10.37,2013-01-05 21:13:00,
2013-01-05 13:18:00,28.1,18.2,30.33,East,92,8.1,8.1,66,0.00,CLR,,0.00,WeatherDisplay:10.37,2013-01-05 21:18:00,
2013-01-05 13:23:00,27.9,18.4,30.33,ESE,112,7.0,7.0,67,0.00,CLR,,0.00,WeatherDisplay:10.37,2013-01-05 21:23:00,
2013-01-05 13:28:00,27.9,18.7,30.33,ESE,102,4.6,4.6,68,0.00,CLR,,0.00,WeatherDisplay:10.37,2013-01-05 21:28:00,
2013-01-05 13:33:00,27.9,19.0,30.33,ESE,107,5.8,5.8,69,0.00,CLR,,0.00,WeatherDisplay:10.37,2013-01-05 21:33:00,
2013-01-05 13:38:00,27.9,19.0,30.32,ESE,103,7.0,7.0,69,0.00,CLR,,0.00,WeatherDisplay:10.37,2013-01-05 21:38:00,
2013-01-05 13:43:00,27.6,19.1,30.32,ESE,110,6.9,6.9,70,0.00,CLR,,0.00,WeatherDisplay:10.37,2013-01-05 21:43:00,
2013-01-05 13:48:00,27.5,19.0,30.32,ESE,104,8.0,8.0,70,0.00,CLR,,0.00,WeatherDisplay:10.37,2013-01-05 21:48:00,
2013-01-05 13:53:00,27.3,19.1,30.31,East,99,7.0,7.0,71,0.00,CLR,,0.00,WeatherDisplay:10.37,2013-01-05 21:53:00,
2013-01-05 13:58:00,27.2,19.0,30.31,East,97,8.0,8.0,71,0.00,CLR,,0.00,WeatherDisplay:10.37,2013-01-05 21:58:00,
2013-01-05 14:03:00,27.2,19.4,30.32,East,89,6.0,6.0,72,0.00,CLR,,0.00,WeatherDisplay:10.37,2013-01-05 22:03:00,
2013-01-05 14:08:00,27.2,19.7,30.32,East,100,7.0,7.0,73,0.00,CLR,,0.00,WeatherDisplay:10.37,2013-01-05 22:08:00,
2013-01-05 14:13:00,27.2,20.0,30.31,ESE,109,4.0,4.0,74,0.00,CLR,,0.00,WeatherDisplay:10.37,2013-01-05 22:13:00,
2013-01-05 14:18:00,27.2,20.0,30.31,East,97,5.8,5.8,74,0.00,CLR,,0.00,WeatherDisplay:10.37,2013-01-05 22:18:00,
2013-01-05 14:23:00,27.3,20.4,30.31,East,93,4.6,4.6,75,0.00,CLR,,0.00,WeatherDisplay:10.37,2013-01-05 22:23:00,
2013-01-05 14:28:00,27.5,20.6,30.30,SSE,150,5.8,5.8,75,0.00,CLR,,0.00,WeatherDisplay:10.37,2013-01-05 22:28:00,
2013-01-05 14:33:00,27.5,20.9,30.30,ESE,109,6.0,6.0,76,0.00,CLR,,0.00,WeatherDisplay:10.37,2013-01-05 22:33:00,
2013-01-05 14:38:00,27.5,20.9,30.30,East,85,6.0,6.0,76,0.00,CLR,,0.00,WeatherDisplay:10.37,2013-01-05 22:38:00,
2013-01-05 14:43:00,27.5,21.2,30.31,ESE,117,3.5,3.5,77,0.00,CLR,,0.00,WeatherDisplay:10.37,2013-01-05 22:43:00,
2013-01-05 14:48:00,27.6,21.3,30.31,ESE,117,2.3,0.0,77,0.00,CLR,,0.00,WeatherDisplay:10.37,2013-01-05 22:48:00,
2013-01-05 14:53:00,27.8,21.5,30.32,ESE,117,2.3,0.0,77,0.00,CLR,,0.00,WeatherDisplay:10.37,2013-01-05 22:53:00,
2013-01-05 14:58:00,27.8,21.2,30.32,ESE,117,2.3,2.3,76,0.00,CLR,,0.00,WeatherDisplay:10.37,2013-01-05 22:58:00,
2013-01-05 15:03:00,27.6,21.3,30.32,ESE,117,3.5,3.5,77,0.00,CLR,,0.00,WeatherDisplay:10.37,2013-01-05 23:03:00,
2013-01-05 15:08:00,27.6,21.3,30.31,ESE,117,3.5,3.5,77,0.00,CLR,,0.00,WeatherDisplay:10.37,2013-01-05 23:08:00,
2013-01-05 15:13:00,27.8,21.5,30.31,East,96,5.8,5.8,77,0.00,CLR,,0.00,WeatherDisplay:10.37,2013-01-05 23:13:00,
2013-01-05 15:18:00,27.8,21.5,30.31,East,92,4.6,4.6,77,0.00,CLR,,0.00,WeatherDisplay:10.37,2013-01-05 23:18:00,
2013-01-05 15:23:00,27.8,21.5,30.31,East,80,5.0,5.0,77,0.00,CLR,,0.00,WeatherDisplay:10.37,2013-01-05 23:23:00,
2013-01-05 15:28:00,27.9,21.9,30.31,ESE,107,4.6,0.0,78,0.00,CLR,,0.00,WeatherDisplay:10.37,2013-01-05 23:28:00,
2013-01-05 15:33:00,27.9,21.9,30.31,ESE,107,3.5,3.5,78,0.00,CLR,,0.00,WeatherDisplay:10.37,2013-01-05 23:33:00,
2013-01-05 15:38:00,27.9,21.9,30.32,ESE,107,1.1,1.1,78,0.00,CLR,,0.00,WeatherDisplay:10.37,2013-01-05 23:38:00,
2013-01-05 15:43:00,27.9,21.9,30.31,ESE,107,3.0,3.0,78,0.00,CLR,,0.00,WeatherDisplay:10.37,2013-01-05 23:43:00,
2013-01-05 15:48:00,27.9,21.9,30.31,East,79,3.5,3.5,78,0.00,CLR,,0.00,WeatherDisplay:10.37,2013-01-05 23:48:00,
2013-01-05 15:53:00,27.9,21.9,30.31,ESE,103,3.5,3.5,78,0.00,CLR,,0.00,WeatherDisplay:10.37,2013-01-05 23:53:00,
2013-01-05 15:58:00,27.9,21.9,30.31,ESE,103,3.5,3.5,78,0.00,CLR,,0.00,WeatherDisplay:10.37,2013-01-05 23:58:00,
2013-01-05 16:03:00,27.9,21.9,30.31,ESE,109,3.0,3.0,78,0.00,CLR,,0.00,WeatherDisplay:10.37,2013-01-06 00:03:00,
2013-01-05 16:08:00,27.9,21.9,30.31,ESE,107,3.5,3.5,78,0.00,CLR,,0.00,WeatherDisplay:10.37,2013-01-06 00:08:00,
2013-01-05 16:13:00,27.9,22.2,30.31,ESE,107,1.1,0.0,79,0.00,CLR,,0.00,WeatherDisplay:10.37,2013-01-06 00:13:00,
2013-01-05 16:18:00,27.9,22.2,30.31,ESE,107,3.5,3.5,79,0.00,CLR,,0.00,WeatherDisplay:10.37,2013-01-06 00:18:00,
2013-01-05 16:23:00,27.9,22.2,30.31,ESE,107,2.3,2.3,79,0.00,CLR,,0.00,WeatherDisplay:10.37,2013-01-06 00:23:00,
2013-01-05 16:28:00,27.9,22.2,30.31,East,92,4.6,4.6,79,0.00,CLR,,0.00,WeatherDisplay:10.37,2013-01-06 00:28:00,
2013-01-05 16:33:00,27.8,22.1,30.31,ESE,106,3.5,3.5,79,0.00,CLR,,0.00,WeatherDisplay:10.37,2013-01-06 00:33:00,
2013-01-05 16:38:00,27.8,22.1,30.30,ESE,102,3.5,3.5,79,0.00,CLR,,0.00,WeatherDisplay:10.37,2013-01-06 00:38:00,
2013-01-05 16:43:00,27.8,22.1,30.30,East,86,3.5,3.5,79,0.00,CLR,,0.00,WeatherDisplay:10.37,2013-01-06 00:43:00,
2013-01-05 16:48:00,27.8,22.1,30.30,SE,131,3.5,3.5,79,0.00,CLR,,0.00,WeatherDisplay:10.37,2013-01-06 00:48:00,
2013-01-05 16:53:00,27.8,22.1,30.30,ESE,113,2.3,0.0,79,0.00,CLR,,0.00,WeatherDisplay:10.37,2013-01-06 00:53:00,
2013-01-05 16:58:00,27.8,22.1,30.30,ESE,103,3.5,3.5,79,0.00,CLR,,0.00,WeatherDisplay:10.37,2013-01-06 00:58:00,
2013-01-05 17:03:00,27.9,22.2,30.30,ESE,104,3.5,3.5,79,0.00,CLR,,0.00,WeatherDisplay:10.37,2013-01-06 01:03:00,
2013-01-05 17:08:00,27.9,22.2,30.31,ESE,113,3.5,3.5,79,0.00,CLR,,0.00,WeatherDisplay:10.37,2013-01-06 01:08:00,
2013-01-05 17:13:00,27.9,22.2,30.31,ESE,114,2.3,2.3,79,0.00,CLR,,0.00,WeatherDisplay:10.37,2013-01-06 01:13:00,
2013-01-05 17:18:00,27.9,21.9,30.31,ESE,114,2.3,2.3,78,0.00,CLR,,0.00,WeatherDisplay:10.37,2013-01-06 01:18:00,
2013-01-05 17:23:00,28.1,21.8,30.31,ESE,123,3.5,3.5,77,0.00,CLR,,0.00,WeatherDisplay:10.37,2013-01-06 01:23:00,
2013-01-05 17:28:00,28.1,21.5,30.31,ESE,123,3.5,0.0,76,0.00,CLR,,0.00,WeatherDisplay:10.37,2013-01-06 01:28:00,
2013-01-05 17:33:00,28.2,21.0,30.31,ESE,120,2.3,2.3,74,0.00,CLR,,0.00,WeatherDisplay:10.37,2013-01-06 01:33:00,
2013-01-05 17:38:00,28.2,20.7,30.31,ESE,120,2.0,2.0,73,0.00,CLR,,0.00,WeatherDisplay:10.37,2013-01-06 01:38:00,
2013-01-05 17:43:00,28.4,20.2,30.31,ESE,120,2.3,2.3,71,0.00,CLR,,0.00,WeatherDisplay:10.37,2013-01-06 01:43:00,
2013-01-05 17:48:00,28.4,19.9,30.31,East,100,4.0,4.0,70,0.00,CLR,,0.00,WeatherDisplay:10.37,2013-01-06 01:48:00,
2013-01-05 17:53:00,28.5,19.6,30.31,ESE,107,6.0,6.0,69,0.00,CLR,,0.00,WeatherDisplay:10.37,2013-01-06 01:53:00,
2013-01-05 17:58:00,28.5,19.3,30.30,East,93,6.9,6.9,68,0.00,CLR,,0.00,WeatherDisplay:10.37,2013-01-06 01:58:00,
2013-01-05 18:03:00,28.4,19.2,30.30,ESE,106,6.9,6.9,68,0.00,CLR,,0.00,WeatherDisplay:10.37,2013-01-06 02:03:00,
2013-01-05 18:08:00,28.1,19.6,30.31,ESE,103,3.5,3.5,70,0.00,CLR,,0.00,WeatherDisplay:10.37,2013-01-06 02:08:00,
2013-01-05 18:13:00,27.9,19.7,30.31,East,83,5.8,5.8,71,0.00,CLR,,0.00,WeatherDisplay:10.37,2013-01-06 02:13:00,
2013-01-05 18:18:00,27.8,20.3,30.31,East,100,4.6,4.6,73,0.00,CLR,,0.00,WeatherDisplay:10.37,2013-01-06 02:18:00,
2013-01-05 18:23:00,27.6,20.1,30.32,East,99,3.5,3.5,73,0.00,CLR,,0.00,WeatherDisplay:10.37,2013-01-06 02:23:00,
2013-01-05 18:28:00,27.5,20.3,30.32,ESE,104,3.5,3.5,74,0.00,CLR,,0.00,WeatherDisplay:10.37,2013-01-06 02:28:00,
2013-01-05 18:33:00,27.5,20.3,30.32,ESE,103,3.5,3.5,74,0.00,CLR,,0.00,WeatherDisplay:10.37,2013-01-06 02:33:00,
2013-01-05 18:38:00,27.3,20.1,30.31,ESE,110,3.5,3.5,74,0.00,CLR,,0.00,WeatherDisplay:10.37,2013-01-06 02:38:00,
2013-01-05 18:43:00,27.2,20.0,30.31,East,86,3.5,3.5,74,0.00,CLR,,0.00,WeatherDisplay:10.37,2013-01-06 02:43:00,
2013-01-05 18:48:00,27.2,20.3,30.31,East,89,3.0,3.0,75,0.00,CLR,,0.00,WeatherDisplay:10.37,2013-01-06 02:48:00,
2013-01-05 18:53:00,27.2,20.3,30.31,East,89,3.5,3.5,75,0.00,CLR,,0.00,WeatherDisplay:10.37,2013-01-06 02:53:00,
2013-01-05 18:58:00,27.0,20.1,30.31,ESE,103,3.5,3.5,75,0.00,CLR,,0.00,WeatherDisplay:10.37,2013-01-06 02:58:00,
2013-01-05 19:03:00,26.9,20.0,30.31,East,100,3.5,3.5,75,0.00,CLR,,0.00,WeatherDisplay:10.37,2013-01-06 03:03:00,
2013-01-05 19:08:00,26.9,20.3,30.31,East,90,3.5,3.5,76,0.00,CLR,,0.00,WeatherDisplay:10.37,2013-01-06 03:08:00,
2013-01-05 19:13:00,26.7,20.1,30.32,East,90,2.3,0.0,76,0.00,CLR,,0.00,WeatherDisplay:10.37,2013-01-06 03:13:00,
2013-01-05 19:18:00,26.7,20.1,30.31,East,90,2.3,2.3,76,0.00,CLR,,0.00,WeatherDisplay:10.37,2013-01-06 03:18:00,
2013-01-05 19:23:00,26.7,20.1,30.31,East,90,2.0,2.0,76,0.00,CLR,,0.00,WeatherDisplay:10.37,2013-01-06 03:23:00,
2013-01-05 19:28:00,26.6,20.1,30.31,East,90,2.3,2.3,76,0.00,CLR,,0.00,WeatherDisplay:10.37,2013-01-06 03:28:00,
2013-01-05 19:33:00,26.6,20.1,30.31,East,90,3.5,3.5,76,0.00,CLR,,0.00,WeatherDisplay:10.37,2013-01-06 03:33:00,
2013-01-05 19:38:00,26.6,20.1,30.31,East,90,3.5,3.5,76,0.00,CLR,,0.00,WeatherDisplay:10.37,2013-01-06 03:38:00,
2013-01-05 19:43:00,26.4,19.5,30.32,East,90,3.5,3.5,75,0.00,CLR,,0.00,WeatherDisplay:10.37,2013-01-06 03:43:00,
2013-01-05 19:48:00,26.4,19.5,30.32,East,90,2.3,2.3,75,0.00,CLR,,0.00,WeatherDisplay:10.37,2013-01-06 03:48:00,
2013-01-05 19:53:00,26.4,19.5,30.32,East,90,2.3,2.3,75,0.00,CLR,,0.00,WeatherDisplay:10.37,2013-01-06 03:53:00,
2013-01-05 19:58:00,26.4,19.5,30.32,East,90,0.0,0.0,75,0.00,CLR,,0.00,WeatherDisplay:10.37,2013-01-06 03:58:00,
2013-01-05 20:03:00,26.4,19.5,30.31,East,90,0.0,0.0,75,0.00,CLR,,0.00,WeatherDisplay:10.37,2013-01-06 04:03:00,
2013-01-05 20:08:00,26.4,19.5,30.31,East,90,0.0,0.0,75,0.00,CLR,,0.00,WeatherDisplay:10.37,2013-01-06 04:08:00,
2013-01-05 20:13:00,26.3,19.5,30.31,East,90,0.0,0.0,75,0.00,CLR,,0.00,WeatherDisplay:10.37,2013-01-06 04:13:00,
2013-01-05 20:18:00,26.3,19.5,30.31,East,90,0.0,0.0,75,0.00,CLR,,0.00,WeatherDisplay:10.37,2013-01-06 04:18:00,
2013-01-05 20:23:00,26.4,19.5,30.31,East,90,0.0,0.0,75,0.00,CLR,,0.00,WeatherDisplay:10.37,2013-01-06 04:23:00,
2013-01-05 20:28:00,26.4,19.5,30.31,East,90,0.0,0.0,75,0.00,CLR,,0.00,WeatherDisplay:10.37,2013-01-06 04:28:00,
2013-01-05 20:33:00,26.3,19.5,30.31,East,90,0.0,0.0,75,0.00,CLR,,0.00,WeatherDisplay:10.37,2013-01-06 04:33:00,
2013-01-05 20:38:00,26.3,19.5,30.31,East,90,0.0,0.0,75,0.00,CLR,,0.00,WeatherDisplay:10.37,2013-01-06 04:38:00,
2013-01-05 20:43:00,26.3,19.5,30.31,East,90,0.0,0.0,75,0.00,CLR,,0.00,WeatherDisplay:10.37,2013-01-06 04:43:00,
2013-01-05 20:48:00,26.1,19.3,30.31,East,90,1.1,1.1,75,0.00,CLR,,0.00,WeatherDisplay:10.37,2013-01-06 04:48:00,
2013-01-05 20:53:00,26.0,19.2,30.31,East,90,2.3,2.3,75,0.00,CLR,,0.00,WeatherDisplay:10.37,2013-01-06 04:53:00,
2013-01-05 20:58:00,25.8,19.0,30.31,East,92,2.3,0.0,75,0.00,CLR,,0.00,WeatherDisplay:10.37,2013-01-06 04:58:00,
2013-01-05 21:00:00,25.8,19.0,30.31,East,91,0.0,2.0,75,0.00,CLR,,0.00,WeatherDisplay:10.37,2013-01-06 05:00:00,
2013-01-05 21:03:00,25.8,19.0,30.30,East,95,3.5,3.5,75,0.00,CLR,,0.00,WeatherDisplay:10.37,2013-01-06 05:03:00,
2013-01-05 21:04:00,25.8,19.0,30.30,ESE,103,3.5,3.5,75,0.00,CLR,,0.00,WeatherDisplay:10.37,2013-01-06 05:04:00,
2013-01-05 21:05:00,25.8,19.0,30.30,East,92,3.5,3.5,75,0.00,CLR,,0.00,WeatherDisplay:10.37,2013-01-06 05:05:00,
2013-01-05 21:10:00,25.8,19.0,30.30,East,100,5.0,5.0,75,0.00,CLR,,0.00,WeatherDisplay:10.37,2013-01-06 05:10:00,
2013-01-05 21:15:00,25.8,18.7,30.29,ESE,123,3.5,3.5,74,0.00,CLR,,0.00,WeatherDisplay:10.37,2013-01-06 05:15:00,
2013-01-05 21:20:00,25.8,18.7,30.29,ESE,103,6.0,6.0,74,0.00,CLR,,0.00,WeatherDisplay:10.37,2013-01-06 05:20:00,
2013-01-05 21:25:00,26.0,18.8,30.29,ESE,103,1.1,0.0,74,0.00,CLR,,0.00,WeatherDisplay:10.37,2013-01-06 05:25:00,
2013-01-05 21:30:00,26.0,18.8,30.29,ESE,106,2.3,2.3,74,0.00,CLR,,0.00,WeatherDisplay:10.37,2013-01-06 05:30:00,
2013-01-05 21:35:00,26.0,18.8,30.30,SE,136,2.3,2.3,74,0.00,CLR,,0.00,WeatherDisplay:10.37,2013-01-06 05:35:00,
2013-01-05 21:40:00,25.8,18.7,30.30,SE,136,2.0,2.0,74,0.00,CLR,,0.00,WeatherDisplay:10.37,2013-01-06 05:40:00,
2013-01-05 21:45:00,25.7,18.6,30.30,SSE,160,2.0,2.0,74,0.00,CLR,,0.00,WeatherDisplay:10.37,2013-01-06 05:45:00,
2013-01-05 21:50:00,25.7,18.6,30.30,SSE,160,3.5,3.5,74,0.00,CLR,,0.00,WeatherDisplay:10.37,2013-01-06 05:50:00,
2013-01-05 21:55:00,25.6,18.8,30.30,SSE,160,2.3,2.3,75,0.00,CLR,,0.00,WeatherDisplay:10.37,2013-01-06 05:55:00,
2013-01-05 22:00:00,25.6,18.8,30.30,SSE,160,2.3,0.0,75,0.00,CLR,,0.00,WeatherDisplay:10.37,2013-01-06 06:00:00,
2013-01-05 22:05:00,25.4,18.6,30.29,SSE,160,0.0,0.0,75,0.00,CLR,,0.00,WeatherDisplay:10.37,2013-01-06 06:05:00,
2013-01-05 22:10:00,25.1,18.3,30.29,SSE,160,0.0,0.0,75,0.00,CLR,,0.00,WeatherDisplay:10.37,2013-01-06 06:10:00,
2013-01-05 22:15:00,25.1,18.3,30.29,SSE,161,1.1,1.1,75,0.00,CLR,,0.00,WeatherDisplay:10.37,2013-01-06 06:15:00,
2013-01-05 22:20:00,25.1,18.3,30.29,SSE,160,1.1,1.1,75,0.00,CLR,,0.00,WeatherDisplay:10.37,2013-01-06 06:20:00,
2013-01-05 22:25:00,25.1,18.3,30.29,SSE,160,2.0,2.0,75,0.00,CLR,,0.00,WeatherDisplay:10.37,2013-01-06 06:25:00,
2013-01-05 22:30:00,25.1,18.3,30.29,SE,130,6.0,6.0,75,0.00,CLR,,0.00,WeatherDisplay:10.37,2013-01-06 06:30:00,
2013-01-05 22:35:00,25.6,18.5,30.29,ESE,120,4.6,4.6,74,0.00,CLR,,0.00,WeatherDisplay:10.37,2013-01-06 06:35:00,
2013-01-05 22:40:00,25.8,18.7,30.29,ESE,114,3.5,3.5,74,0.00,CLR,,0.00,WeatherDisplay:10.37,2013-01-06 06:40:00,
2013-01-05 22:45:00,26.3,19.1,30.29,ESE,117,3.5,3.5,74,0.00,CLR,,0.00,WeatherDisplay:10.37,2013-01-06 06:45:00,
2013-01-05 22:50:00,26.4,19.2,30.29,SE,130,4.0,4.0,74,0.00,CLR,,0.00,WeatherDisplay:10.37,2013-01-06 06:50:00,
2013-01-05 22:55:00,26.7,19.2,30.28,SE,131,2.3,0.0,73,0.00,CLR,,0.00,WeatherDisplay:10.37,2013-01-06 06:55:00,
2013-01-05 23:00:00,26.7,19.2,30.28,SE,131,3.5,3.5,73,0.00,CLR,,0.00,WeatherDisplay:10.37,2013-01-06 07:00:00,
2013-01-05 23:05:00,26.7,19.2,30.28,SE,145,3.5,0.0,73,0.00,CLR,,0.00,WeatherDisplay:10.37,2013-01-06 07:05:00,
2013-01-05 23:10:00,26.7,19.2,30.28,SE,145,1.1,0.0,73,0.00,CLR,,0.00,WeatherDisplay:10.37,2013-01-06 07:10:00,
2013-01-05 23:15:00,26.6,19.1,30.28,SE,145,0.0,0.0,73,0.00,CLR,,0.00,WeatherDisplay:10.37,2013-01-06 07:15:00,
2013-01-05 23:20:00,26.6,19.1,30.28,SE,145,0.0,0.0,73,0.00,CLR,,0.00,WeatherDisplay:10.37,2013-01-06 07:20:00,
2013-01-05 23:25:00,26.3,19.1,30.29,SE,145,0.0,0.0,74,0.00,CLR,,0.00,WeatherDisplay:10.37,2013-01-06 07:25:00,
2013-01-05 23:30:00,26.1,18.9,30.29,SE,145,1.1,0.0,74,0.00,CLR,,0.00,WeatherDisplay:10.37,2013-01-06 07:30:00,
2013-01-05 23:35:00,25.8,18.7,30.28,SE,145,1.1,1.1,74,0.00,CLR,,0.00,WeatherDisplay:10.37,2013-01-06 07:35:00,
2013-01-05 23:40:00,25.7,18.9,30.28,SE,145,2.3,2.3,75,0.00,CLR,,0.00,WeatherDisplay:10.37,2013-01-06 07:40:00,
2013-01-05 23:45:00,25.4,18.6,30.28,SE,126,2.3,2.3,75,0.00,CLR,,0.00,WeatherDisplay:10.37,2013-01-06 07:45:00,
2013-01-05 23:50:00,25.0,18.2,30.28,SE,127,2.3,2.3,75,0.00,CLR,,0.00,WeatherDisplay:10.37,2013-01-06 07:50:00,
2013-01-05 23:55:00,24.7,17.9,30.28,SE,126,0.0,1.0,75,0.00,CLR,,0.00,WeatherDisplay:10.37,2013-01-06 07:55:00,